DW8661 Madrid ES current weather conditions

sailwx.info

Wind from 071

Air temperature 22.8° C
Dewpoint 13.3° C

Last reported at 2019-Sep-18 11:00 UTC.
Time now 2019-Sep-18 11:18 UTC

Location: N 40°29' W 003°44'.
View on Google Maps.

See reports from other nearby stations

  
Tides and Currents Weather Stations Pressure Air Temp Water Temp Dewpoint Dewpoint Depression Visibility Wind Speed Wind Dir Waves Ship Positions
date/time (UTC)wind fromknots sea level pressurealtimeterstation pressurevisibilityair tempwater tempwave heightnotes
2019-Sep-18 11:00 071 22.8
2019-Sep-18 10:45 134 22.8
2019-Sep-18 10:30 175 21.7
2019-Sep-18 10:03 219 21.1
2019-Sep-18 09:46 057 20.6
2019-Sep-18 09:31 051 20.6
2019-Sep-18 09:16 059 20.0
2019-Sep-18 09:01 052 20.0
2019-Sep-18 08:46 067 19.4
2019-Sep-18 08:31 042 18.9
2019-Sep-18 08:15 040 18.9
2019-Sep-18 08:00 060 18.3
2019-Sep-18 07:46 057 17.8
2019-Sep-18 07:31 084 17.8
2019-Sep-18 07:16 099 17.2
2019-Sep-18 07:01 141 17.2
2019-Sep-18 06:45 155 17.2
2019-Sep-18 06:30 075 17.2
2019-Sep-18 06:15 069 17.2
2019-Sep-18 06:00 068 17.2
2019-Sep-18 05:45 067 17.2
2019-Sep-18 05:30 028 16.7
2019-Sep-18 05:15 032 16.7
2019-Sep-18 05:00 032 16.7
2019-Sep-18 04:45 018 16.7
2019-Sep-18 04:30 022 16.7
2019-Sep-18 04:15 005 16.7
2019-Sep-18 04:00 027 16.7
2019-Sep-18 03:45 017 0 16.7
2019-Sep-18 03:31 014 17.2
2019-Sep-18 03:16 350 0 17.2
2019-Sep-18 03:02 009 0 17.2
2019-Sep-18 02:47 060 1 17.2
2019-Sep-18 02:31 083 4 17.2
2019-Sep-18 02:16 055 2 17.2
2019-Sep-18 02:02 039 0 17.2
2019-Sep-18 01:46 013 17.8
2019-Sep-18 01:32 059 0 17.8
2019-Sep-18 01:16 034 3 17.2
2019-Sep-18 01:01 034 2 17.8
2019-Sep-18 00:46 024 0 17.8
2019-Sep-18 00:31 040 0 17.8
2019-Sep-18 00:16 017 18.3
2019-Sep-18 00:01 063 18.3
2019-Sep-17 23:47 068 18.3
2019-Sep-17 23:30 063 18.9
2019-Sep-17 23:16 066 18.9
2019-Sep-17 23:01 024 1 18.3
2019-Sep-17 22:46 148 18.3
2019-Sep-17 22:30 212 2 18.3
2019-Sep-17 22:16 105 2 18.9
2019-Sep-17 22:01 082 6 18.9
2019-Sep-17 21:46 059 0 19.4
2019-Sep-17 21:31 055 2 19.4
2019-Sep-17 21:15 342 0 20.0
2019-Sep-17 21:01 017 20.0
2019-Sep-17 20:46 022 20.0
2019-Sep-17 20:30 355 20.0
2019-Sep-17 20:15 345 20.0
2019-Sep-17 20:00 344 20.0
2019-Sep-17 19:46 199 20.0
2019-Sep-17 19:30 234 1 20.0
2019-Sep-17 19:16 182 20.6
2019-Sep-17 19:00 199 0 20.6
2019-Sep-17 18:45 207 21.1
2019-Sep-17 18:30 218 1 21.1
2019-Sep-17 18:15 203 3 22.2
2019-Sep-17 18:01 240 25.6
2019-Sep-17 17:45 211 2 25.6
2019-Sep-17 17:30 201 3 26.1
2019-Sep-17 17:15 159 5 26.1
2019-Sep-17 17:00 179 1 26.1
2019-Sep-17 16:45 173 1 26.1
2019-Sep-17 16:30 173 4 26.7
2019-Sep-17 16:16 166 2 26.7
2019-Sep-17 16:00 189 2 26.7
2019-Sep-17 15:45 246 1 27.2
2019-Sep-17 15:30 195 27.2
2019-Sep-17 15:15 159 0 27.8
2019-Sep-17 15:00 102 27.8
2019-Sep-17 14:45 194 28.3
2019-Sep-17 14:30 214 0 27.2
2019-Sep-17 14:15 154 27.2
2019-Sep-17 14:00 134 27.2
2019-Sep-17 13:45 150 1 26.7
2019-Sep-17 13:33 036 26.7
2019-Sep-17 13:17 107 1 26.7
2019-Sep-17 13:01 052 26.1
2019-Sep-17 12:47 055 0 26.1
2019-Sep-17 12:31 229 0 25.6
2019-Sep-17 12:16 162 0 25.6
2019-Sep-17 12:01 170 25.6
2019-Sep-17 11:46 042 25.0
2019-Sep-17 11:32 084 24.4
2019-Sep-17 11:17 061 23.9
2019-Sep-17 11:01 051 23.3
2019-Sep-17 10:45 140 0 23.9
2019-Sep-17 10:31 141 0 23.3
2019-Sep-17 10:15 130 23.3
2019-Sep-17 10:00 082 22.2
2019-Sep-17 09:45 086 21.7
2019-Sep-17 09:30 049 1 21.1
2019-Sep-17 09:15 022 0 21.1
2019-Sep-17 09:00 084 20.6
2019-Sep-17 08:45 094 20.6
2019-Sep-17 08:31 014 19.4
2019-Sep-17 08:16 026 19.4
2019-Sep-17 08:02 036 18.9
2019-Sep-17 07:46 036 18.3
2019-Sep-17 07:31 037 17.8
2019-Sep-17 07:16 063 17.8
2019-Sep-17 07:01 076 18.3
2019-Sep-17 06:46 074 17.8
2019-Sep-17 06:31 078 1 17.8
2019-Sep-17 06:16 072 0 17.8
2019-Sep-17 06:01 067 1 17.2
2019-Sep-17 05:46 028 2 17.2
2019-Sep-17 05:30 076 17.2
2019-Sep-17 05:15 078 17.2
2019-Sep-17 05:00 072 0 17.2
2019-Sep-17 04:46 092 0 17.2
2019-Sep-17 04:31 080 3 17.2
2019-Sep-17 04:16 077 0 17.8
2019-Sep-17 04:00 074 17.8
2019-Sep-17 03:46 072 18.3
2019-Sep-17 03:30 072 18.3
2019-Sep-17 03:16 068 17.8
2019-Sep-17 03:00 033 17.8
2019-Sep-17 02:45 005 17.8
2019-Sep-17 02:31 057 17.8
2019-Sep-17 02:15 059 17.8
2019-Sep-17 02:01 059 17.8
2019-Sep-17 01:45 036 17.2
2019-Sep-17 01:31 355 16.7
2019-Sep-17 01:15 355 17.2
2019-Sep-17 01:00 355 17.2
2019-Sep-17 00:45 355 17.2
2019-Sep-17 00:31 355 17.2
2019-Sep-17 00:15 355 17.2
2019-Sep-17 00:00 355 17.8
2019-Sep-16 23:45 355 17.8
2019-Sep-16 23:30 355 18.3
2019-Sep-16 23:15 355 18.3
2019-Sep-16 23:00 355 18.9
2019-Sep-16 22:45 355 18.9
2019-Sep-16 22:30 355 18.9
2019-Sep-16 22:17 355 18.9
2019-Sep-16 22:01 355 18.9
2019-Sep-16 21:46 355 18.9
2019-Sep-16 21:32 355 18.9
2019-Sep-16 21:16 355 18.9
2019-Sep-16 21:03 355 19.4
2019-Sep-16 20:48 355 19.4
2019-Sep-16 20:32 355 19.4
2019-Sep-16 20:17 355 19.4
2019-Sep-16 20:02 355 20.0
2019-Sep-16 19:46 355 20.0
2019-Sep-16 19:32 355 20.6
2019-Sep-16 19:16 355 20.6
2019-Sep-16 19:02 355 21.1
2019-Sep-16 18:47 347 21.1
2019-Sep-16 18:32 347 21.1
2019-Sep-16 18:16 347 21.1
2019-Sep-16 18:02 346 21.1
2019-Sep-16 17:46 346 21.1
2019-Sep-16 17:31 355 0 21.1
2019-Sep-16 17:18 325 1 20.6
2019-Sep-16 17:01 355 1 20.6
2019-Sep-16 16:47 329 1 21.1
2019-Sep-16 16:31 014 22.2
2019-Sep-16 16:17 311 1 23.3
2019-Sep-16 16:01 207 24.4
2019-Sep-16 15:47 207 24.4
2019-Sep-16 15:31 215 24.4
2019-Sep-16 15:16 202 0 24.4
2019-Sep-16 15:01 175 0 25.0
2019-Sep-16 14:46 175 0 24.4
2019-Sep-16 14:31 172 2 24.4
2019-Sep-16 14:16 194 0 24.4
2019-Sep-16 14:02 221 0 23.9
2019-Sep-16 13:46 042 0 23.3
2019-Sep-16 13:30 134 1 23.9
2019-Sep-16 13:16 189 0 23.3
2019-Sep-16 13:00 128 23.3
2019-Sep-16 12:46 033 23.3
2019-Sep-16 12:30 076 22.8
2019-Sep-16 12:15 080 0 22.2
2019-Sep-16 12:01 067 22.2
2019-Sep-16 11:46 065 22.2
2019-Sep-16 11:30 077 22.2
2019-Sep-16 11:15 360 21.7
2019-Sep-16 11:00 076 21.7